Regional Weather Roundup
Issued by NWS Sterling, VA

Home | Current Version | Previous Version | Text Only | Print | Product List | Glossary On
Versions: 1 2 3 4 5 6 7 8 9 10 11 12 13 14 15 16 17 18 19 20 21 22 23 24 25 26 27 28 29 30 31 32 33 34 35 36 37 38 39 40 41 42 43 44 45 46 47 48 49 50
000
ASUS41 KLWX 081711
RWRLWX

REGIONAL WEATHER ROUNDUP
NATIONAL WEATHER SERVICE BALTIMORE MD/WASHINGTON DC
1200 PM EST THU DEC 08 2016

Note: "FAIR" indicates few or no clouds below 12,000 feet
with no significant weather and/or obstructions to visibility.
 TC=TEMPERATURE CELSIUS

 * =Non NWS site. Station does not report precipitation (e.g. rain,
    snow, etc.), thunder, or fog.

DCZ001-MDZ009-015-VAZ040>042-051-053>054-081800-
WASHINGTON METRO

CITY           SKY/WX    TMP DP  RH WIND       PRES   REMARKS
WASHINGTON NAT CLOUDY    47  23  38 W8        30.03F
DULLES         PTSUNNY   44  24  45 W10       30.02F
ANDREWS AFB    CLOUDY    45  21  38 W14       30.00F
FT BELVOIR     CLOUDY    46  24  42 VRB3      30.02F
QUANTICO       CLOUDY    47  32  56 W5        30.04F
COLLEGE PARK*  CLOUDY    43  27  52 SW3       30.01F
LEESBURG*      MOSUNNY   46  27  46 W8G16     30.03S
MANASSAS*      PTSUNNY  N/A N/A N/A NW12      30.04
GAITHERSBURG*  CLOUDY    45  23  42 W13       30.04F

$$

MDZ006>007-011-014-081800-
BALTIMORE METRO

CITY           SKY/WX    TMP DP  RH WIND       PRES   REMARKS
BWI AIRPORT    CLOUDY    44  20  38 W13       30.00F
MD SCIENCE CTR   N/A     46  21  37 MISG      30.00F
MARTIN STATE   PTSUNNY   45  28  53 SW7       30.01F
ANNAPOLIS      CLOUDY    47  22  37 W12G18    30.00F
FORT MEADE*    CLOUDY    43  27  52 W8        30.03F

$$

MDZ012-015-019>023-081800-
MARYLAND EASTERN SHORE

CITY           SKY/WX    TMP DP  RH WIND       PRES   REMARKS
OCEAN CITY     CLOUDY    43  35  73 NW6       30.01F
SALISBURY      LGT RAIN  43  33  68 NW6       30.02F
BAY BRIDGE AP* CLOUDY    45  28  53 W8        30.01F
EASTON*        CLOUDY    45  36  70 W5        30.05F

$$

MDZ017>025-081800-
SOUTHERN MARYLAND

CITY           SKY/WX    TMP DP  RH WIND       PRES   REMARKS
PATUXENT RIVER CLOUDY    42  39  89 NW3       30.03F
ST INIGOES     CLOUDY    43  40  89 CALM      30.02F
LEONARDTOWN*   NOT AVBL

$$

MDZ003>005-081800-
NORTH CENTRAL MARYLAND

CITY           SKY/WX    TMP DP  RH WIND       PRES   REMARKS
FREDERICK*     PTSUNNY   45  21  39 W17G23    30.04F
HAGERSTOWN APT MOSUNNY   43  17  35 W12       30.00F
WESTMINSTER*   CLOUDY    41  16  36 W18G25    29.97F

$$

MDZ501>502-081800-
WESTERN MARYLAND

CITY           SKY/WX    TMP DP  RH WIND       PRES   REMARKS
OAKLAND*       PTSUNNY   28  18  64 W13G21    29.96S WCI  18
CUMBERLAND*    NOT AVBL

$$

VAZ025>031-081800-
SHENANDOAH VALLEY

CITY           SKY/WX    TMP DP  RH WIND       PRES   REMARKS
WINCHESTER*    PTSUNNY   41  16  36 W16G23    30.02F
FRONT ROYAL*   FAIR      45  19  36 W7        30.01F
LURAY*         FAIR      41  32  70 SW7       30.03F
NEW MARKET*    FAIR      42  13  31 SW5       30.03F
STAUNTON*      PTSUNNY   40  21  46 SW12      30.05F
WAYNESBORO*    FAIR      39  16  39 SW6       30.04F

$$

WVZ021-048>050-054>055-081800-
EASTERN WEST VIRGINIA PANHANDLE

CITY           SKY/WX    TMP DP  RH WIND       PRES   REMARKS
MARTINSBURG    MOSUNNY   45  19  35 SW13G22   30.01F
PETERSBURG*    SUNNY     43  18  37 SW14G23   30.05F

$$

VAZ036>039-050-081800-
CENTRAL FOOTHILLS

CITY           SKY/WX    TMP DP  RH WIND       PRES   REMARKS
CHARLOTTESVILL CLOUDY    46  24  42 CALM      30.03F
CULPEPER*      CLOUDY    44  37  74 SW5       30.04F
ORANGE*          N/A     45  30  57 SW3       30.05F
GORDONSVILLE*  PTSUNNY   46  26  45 CALM      30.03F
WARRENTON*     PTSUNNY   46  27  47 S5        30.03F

$$

VAZ055>057-081800-
NORTH AND CENTRAL PIEDMONT

CITY           SKY/WX    TMP DP  RH WIND       PRES   REMARKS
FREDERICKSBRG* CLOUDY    49  29  47 W9        30.03F
STAFFORD*      CLOUDY    46  28  50 NW3       30.07F

$$

NCZ024-NYZ072-PAZ021-071-VAZ022-071-081800-
OTHER REGIONAL OBSERVATIONS

CITY           SKY/WX    TMP DP  RH WIND       PRES   REMARKS
NEW YORK CITY    N/A     45  21  39 MISG        N/A
PHILADELPHIA   CLOUDY    44  27  51 SW10      29.97F
PITTSBURGH     CLOUDY    31  17  56 W15G23    30.08S WCI  20
ROANOKE        CLOUDY    42  20  41 W6        30.11F
RICHMOND       PTSUNNY   47  37  68 N8        30.03F
RALEIGH        CLOUDY    50  21  32 NW6       30.10F

$$

ANZ530>537-081800-
MARINE OBSERVATIONS

STATION/POSITION TIME  TEMP    WIND        PRES
                       AIR SEA DIR/SP/G
                 (UTC) (F)     (DEG/KT/KT) (MB)
THOMAS PT LIGHT  1700   45 48  260/  9/ 11   N/A
BALT KEY BRIDGE  1648   44     250/ 12/ 15 1015.7F
COVE POINT       1648   42     350/  1/  2 1017.5F
LEWISETTA        1642   43 48   60/  5/  6 1016.6F
SOLOMONS ISLAND  1642   42 50   CALM  /  3   N/A
PINEY POINT      1648           70/  2/  3   N/A

$$




USA.gov is the U.S. government's official web portal to all federal, state and local government web resources and services.